Location: Fornova de Taro
(44.7000°N, 10.1000°E)
Time: 00:07:15
(UTC+00:00)

Meteor 2-5 Rocket - Pass Details

Date: 26 May 2022
Orbit: 832 x 912 km, 81.2° (Epoch: 02 July)

Event Time Altitude Azimuth Distance (km) Brightness Sun altitude
Exits shadow 00:55:55 37° 184° (S) 1,336 4.2 -20.4°
Maximum altitude 00:58:20 85° 99° (E) 883 3.7 -20.2°
Drops below altitude 10° 01:04:03 10° 12° (NNE) 2,506 7.3 -19.8°
Sets 01:06:27 0° 12° (NNE) 3,435 8.3 -19.6°
